Weather in Choir

Mongolia     46°21′13″N   108°22′21″E
temp.,
°C
wind,
m/s
gust,
m/s
humid.,
%
clouds,
%
prec.,
mm/h
press.,
hPa
HPBL,
m
24 may, tue
tue2423:00+19ene9123690 0.0 1006413
02:00+15nne912425 0.0 1011868
05:00+11nne710480 0.0 1016864
08:00+12nne910380 0.0 10191057
11:00+15n1011265 0.0 10201792
14:00+18ne9102084 0.0 10192839
17:00+18ne891957 0.0 10202984
20:00+16e572193 0.0 1021529
25 may, wed
wed2523:00+13ese232494 0.0 102335
02:00+11sse11290 0.0 102310
05:00+11nw222912 0.0 102410
08:00+14n3323100 0.0 1024310
11:00+17e1218100 0.0 10221976
14:00+19sw11151 0.0 10192897
17:00+20w12130 0.0 10163028
20:00+19ssw22165 0.0 101526
26 may, thu
thu2623:00+17wsw34182 0.0 101555
02:00+15wsw49195 0.0 1014169
05:00+13wsw47211 0.0 1013123
08:00+18w691672 0.0 1011622
11:00+22w7814100 0.0 10091934
14:00+23w3513100 0.0 10052346
17:00+23nw3620100 0.0 10032153
20:00+20nnw1128100 0.0 100221
27 may, fri
fri2723:00+19wsw4634100 0.0 1003229
02:00+16sw364777 0.1 1003229
05:00+14w125211 0.0 100212
08:00+16n45443 0.0 1002469
11:00+20nne33304 0.0 10011575
14:00+23n56245 0.0 9992586
17:00+24nw472272 0.0 9973085
20:00+21n5728100 0.0 998489
28 may, sat
sat2823:00+17e3439100 0.0 999109
02:00+16e4740100 0.0 998319
05:00+15ene5929100 0.0 997559
08:00+8ne81070100 1.9 999393
11:00+10ne6660100 1.2 1000768
14:00+9ne5569100 1.2 1002793
17:00+6nne7982100 1.4 1006830
20:00+8n511700 1.5 1007760